Flag for Nigeria Weather past 2 weeks in Enugu, Nigeria

Now
79 °F

Passing clouds.


Feels Like: 83 °F
Forecast: 76 / 94 °F
Wind: No wind

Location: Douala Obs.

Current Time: Apr 26, 2015 at 3:00:12 AM

Latest Report: Apr 26, 2015 at 1:00 AM


Visibility: 5 mi

Pressure: 29.92 "Hg

Humidity: 94%

Dew point: 77 °F

Location of EnuguLocation

Historic Weather in Enugu — Graph

°F

Enugu temperature yesterday

Maximum temperature yesterday: 91 °F (at 1:00 PM)
Minimum temperature yesterday: 77 °F (at 5:00 AM)
Average temperature yesterday: 83 °F

Past Weeks' High & Low Weather Summary

 TemperatureHumidityPressure
High93 °F (Apr 19, 1:00 PM)100% (Apr 12, 1:00 AM)30.04 "Hg (Apr 12, 1:00 AM)
Low63 °F (Apr 23, 6:00 AM)59% (Apr 11, 1:00 PM)29.74 "Hg (Apr 14, 4:00 PM)
Average83 °F83%29.85 "Hg
* Reported Apr 11 1:00 AM — Apr 26 1:00 AM, Enugu, Weather by CustomWeather, © 2015

Note: Actual official high and low records may vary slightly from our data, if they occured in-between our weather recording intervals... More about our weather records

Advertising

Enugu weather history for previous 24 hours

 ConditionsComfort  
Time TempWeatherWind HumidityBarometerVisibility
1:00 AM
Sun, Apr 26
79 °FPassing clouds.No wind94%29.92 "Hg5 mi
12:00 AM79 °FPassing clouds.No wind100%29.95 "HgN/A
10:00 PM
Sat, Apr 25
81 °FThunderstorms. Passing clouds.5 mph89%29.92 "HgN/A
9:00 PM81 °FThunderstorms. Passing clouds.No wind89%29.89 "HgN/A
8:00 PM82 °FPassing clouds.No wind84%29.86 "HgN/A
7:00 PM84 °FPassing clouds.7 mph79%29.83 "HgN/A
6:00 PM88 °FScattered clouds.12 mph66%29.83 "HgN/A
5:00 PM90 °FScattered clouds.12 mph67%29.83 "HgN/A
3:00 PM90 °FBroken clouds.9 mph67%29.83 "HgN/A
2:00 PM91 °FBroken clouds.7 mph63%29.86 "HgN/A
1:00 PM91 °FPartly sunny.7 mph63%29.89 "HgN/A
12:00 PM90 °FPartly sunny.5 mph67%29.92 "HgN/A
11:00 AM88 °FPartly sunny.5 mph70%29.92 "HgN/A
10:00 AM84 °FPartly sunny.5 mph79%29.92 "HgN/A
9:00 AM81 °FPartly sunny.5 mph89%29.92 "HgN/A
8:00 AM79 °FThunderstorms. Partly sunny.3 mph94%29.92 "HgN/A
7:00 AM77 °FThunderstorms. Partly sunny.No wind94%29.89 "HgN/A
6:00 AM77 °FThunderstorms. Passing clouds.No wind94%29.89 "Hg4 mi
5:00 AM77 °FThunderstorms. Partly cloudy.No wind94%29.89 "Hg4 mi
4:00 AM79 °FThunderstorms. Passing clouds.7 mph89%29.89 "Hg6 mi
3:00 AM79 °FThunderstorms. Passing clouds.No wind94%29.89 "HgN/A
Weather by CustomWeather, © 2015

See weather overviewHow to use our weather pages